Regional Weather Roundup
Issued by NWS

Home | Current Version | Previous Version | Text Only | Print | Product List | Glossary Off
Versions: 1 2 3 4 5 6 7 8 9 10 11 12 13 14 15 16 17 18 19 20 21 22 23 24 25 26 27 28 29 30 31 32 33 34 35 36 37 38 39 40 41 42 43 44 45 46 47 48 49 50

000
ASUS43 KIND 280359
RWRIN

WEATHER ROUNDUP FOR INDIANA
NATIONAL WEATHER SERVICE INDIANAPOLIS IN
1100 PM EST MON FEB 27 2017

NOTE: "FAIR" INDICATES FEW OR NO CLOUDS BELOW 12,000 FEET WITH NO
SIGNIFICANT WEATHER AND/OR OBSTRUCTIONS TO VISIBILITY.

* - STATION DOES NOT REPORT WEATHER SUCH AS PRECIPITATION OR FOG.

+ - STATION NOT QUALITY CONTROLLED BY THE NATIONAL WEATHER SERVICE.
    USE DATA WITH CAUTION...ESPECIALLY DEWPOINT AND RELATIVE
    HUMIDITY OBSERVATIONS.

INZ001>003-010>013-019-020-280500-
NORTHWEST INDIANA

CITY           SKY/WX    TMP DP  RH WIND       PRES   REMARKS
GARY /AIRPORT/ PTCLDY    48  37  66 SE12      30.06
KNOX *+        PTCLDY    43  25  49 SE13      30.09F
RENSSELAER +   MOCLDY    45  41  87 SE9       30.08F

$$

LMZ046-743>745-280500-
SOUTHERN LAKE MICHIGAN

STATION/POSITION TIME  TEMP    WIND        PRES    WAVE
                       AIR SEA DIR/SP/G            HT
                 (UTC) (F)     (DEG/KT/KT) (MB)    (FT)
BURNS HARBOR     0340   47     170/ 13/ 20 1018.6F
MICHIGAN CITY    0330   47     130/ 11/ 13   N/A

$$

INZ004-005-014>016-021>024-280500-
NORTH CENTRAL INDIANA

CITY           SKY/WX    TMP DP  RH WIND       PRES   REMARKS
GOSHEN         CLOUDY    43  37  79 SE9       30.14S
SOUTH BEND     CLOUDY    44  38  79 SE8       30.12F

$$

INZ006>009-017-018-025>027-280500-
NORTHEAST INDIANA

CITY           SKY/WX    TMP DP  RH WIND       PRES   REMARKS
ANGOLA *+      CLEAR     39  39 100 S6        30.15F
FORT WAYNE     CLOUDY    39  36  89 SE7       30.17F
KENDALLVILLE + CLOUDY    41  38  90 S8        30.16S

$$

INZ028-029-035-036-043>045-051>053-280500-
WEST CENTRAL INDIANA

CITY           SKY/WX    TMP DP  RH WIND       PRES   REMARKS
GREENCASTLE +  FAIR      43  41  93 SE8       30.10F
LAFAYETTE      PTCLDY    45  41  86 SE9       30.09F
TERRE HAUTE    CLOUDY    47  41  80 SE12      30.08F

$$

INZ030>032-037>040-046>048-054>057-064-065-280500-
CENTRAL INDIANA

CITY           SKY/WX    TMP DP  RH WIND       PRES   REMARKS
GREENWOOD *+   PTCLDY    45  42  89 SE9       30.14F
INDIANAPOLIS   MOCLDY    45  41  86 SE10      30.12F
-EAGLE CREEK   CLOUDY    46  41  82 SE7       30.12F
KOKOMO +       CLOUDY    43  40  89 SE12      30.14F
MT COMFORT *+  MOCLDY    43  39  87 SE8       30.14F
SHELBYVILLE    CLOUDY    46  39  76 SE9       30.14F

$$

INZ033-034-041-042-049-050-058-059-280500-
EAST CENTRAL INDIANA

CITY           SKY/WX    TMP DP  RH WIND       PRES   REMARKS
MUNCIE         PTCLDY    46  41  82 S7        30.16F

$$

INZ060-061-067>069-081>083-085>088-280500-
SOUTHWEST INDIANA

CITY           SKY/WX    TMP DP  RH WIND       PRES   REMARKS
EVANSVILLE     CLEAR     53  43  68 SE8       30.11F
HUNTINGBURG *+ PTCLDY    52  43  71 SE9       30.13S

$$

INZ062-063-066-070>080-084-089>092-280500-
SOUTH CENTRAL AND SOUTHEAST INDIANA

CITY           SKY/WX    TMP DP  RH WIND       PRES   REMARKS
BLOOMINGTON    PTCLDY    46  41  82 SE7       30.12F
MADISON *+     CLEAR     45  41  87 SE3       30.20S
SEYMOUR +      PTCLDY    45  39  81 E3        30.16S

$$




USA.gov is the U.S. government's official web portal to all federal, state and local government web resources and services.